Regional Weather Roundup
Issued by NWS

Home | Current Version | Previous Version | Text Only | Print | Product List | Glossary Off
Versions: 1 2 3 4 5 6 7 8 9 10 11 12 13 14 15 16 17 18 19 20 21 22 23 24 25 26 27 28 29 30 31 32 33 34 35 36 37 38 39 40 41 42 43 44 45 46 47 48 49 50

000
ASUS43 KMPX 250210
RWRMN
WEATHER ROUNDUP FOR MINNESOTA
NATIONAL WEATHER SERVICE TWIN CITIES/CHANHASSEN MN
900 PM CDT THU JUL 24 2014


NOTE: "FAIR" INDICATES FEW OR NO CLOUDS BELOW 12,000 FEET WITH NO
SIGNIFICANT WEATHER AND/OR OBSTRUCTIONS TO VISIBILITY. N/A MEANS
CURRENT SKY AND/OR WEATHER CONDITIONS ARE NOT AVAILABLE.

MNZ060>063-068>070-250300-
   Twin Cities Metro

CITY           SKY/WX    TMP DP  RH WIND       PRES   REMARKS
TWIN CITIES    PTCLDY    76  59  55 SW6       29.92S
ST PAUL        CLOUDY    74  60  61 S8        29.92S
CRYSTAL        PTCLDY    75  59  57 S6        29.91S
BLAINE         PTCLDY    75  63  64 SW6       29.92
LAKEVILLE      CLEAR     68  61  77 CALM      29.93S HAZE
EDEN PRAIRIE   CLEAR     71  60  68 SW5       29.92R
SOUTH ST PAUL  CLEAR     75  59  57 S6        29.92S
$$
MNZ001>005-007-008-013>017-022>024-027-028-250300-
   Northwest Minnesota

CITY           SKY/WX    TMP DP  RH WIND       PRES   REMARKS
HALLOCK        PTCLDY    72  63  73 E9        29.77F
ROSEAU         CLOUDY    68  63  83 E7        29.85F
WARROAD        CLOUDY    70  64  83 SE8       29.87F
THIEF RVR FALL PTCLDY    72  59  64 SE14      29.80F
CROOKSTON      MOCLDY    72  61  68 SE14      29.75F
FOSSTON        PTCLDY    70  57  64 SE7       29.86F
DETROIT LAKES  MOCLDY    70  61  73 SE7       29.91F
MOORHEAD       MOCLDY    72  64  78 SE16      29.81F
PARK RAPIDS    PTCLDY    71  59  65 SE8       29.92F
$$
MNZ006-009>011-018-025>026-250300-
   North Central Minnesota

CITY           SKY/WX    TMP DP  RH WIND       PRES   REMARKS
BAUDETTE       CLOUDY    68  60  75 CALM      29.90F
FLAG ISLAND    MOCLDY    72  61  68 S6        29.86F
INTL FALLS     MOCLDY    64  59  83 CALM      29.92F
WASKISH        LGT RAIN  66  63  88 CALM      29.91F
BIG FORK       CLOUDY    64  61  88 SW2       29.94F
LONGVILLE      PTCLDY    64  63  94 CALM      29.95S
GRAND RAPIDS   CLOUDY    64  61  88 CALM      29.95F
CRANE LAKE     CLOUDY    61  61 100 CALM      29.94F
ORR            CLOUDY    64  57  77 CALM      29.91F
COOK           CLOUDY    64  59  82 CALM      29.94F
$$
MNZ012-019>021-037-250300-
   Northeast Minnesota

CITY           SKY/WX    TMP DP  RH WIND       PRES   REMARKS
DULUTH         MOCLDY    69  59  70 CALM      29.97S
ELY            CLOUDY    66  55  68 S3        29.95F
HIBBING        CLOUDY    65  59  81 S3        29.95F
EVELETH        CLOUDY    63  57  82 S3        29.96F
DULUTH HARBOR  MOCLDY    64  57  77 E8        29.97S
TWO HARBORS    CLOUDY    64  57  77 CALM      29.95F
SILVER BAY     CLOUDY    63  61  94 CALM      29.96S
GRAND MARAIS     N/A     55  50  83 CALM      29.96R
G MARAIS ARPRT MOCLDY    55  50  82 CALM      30.00S
$$
MNZ029>031-032-039>041-046>048-054>057-064-250300-
   West Central Minnesota

CITY           SKY/WX    TMP DP  RH WIND       PRES   REMARKS
FERGUS FALLS   CLOUDY    70  57  64 E3        29.91R
WHEATON        PTCLDY    66  63  88 E7        29.87S
MORRIS         PTCLDY    66  63  88 E7        29.88R
ALEXANDRIA     CLOUDY    69  62  78 E6        29.94R
WADENA         CLOUDY    70  61  73 CALM      29.94R
GLENWOOD       PTCLDY    66  61  82 SE3       29.94R
APPLETON       PTCLDY    70  59  68 SE5       29.87R
BENSON         MOCLDY    68  63  83 S5        29.90R
ORTONVILLE     CLOUDY    70  61  73 SE6       29.85S
MADISON        MOCLDY    70  63  78 SE6       29.86S
WILLMAR        FAIR      66  61  82 SE3       29.93R
$$
MNZ033>034-036-042>043-049>051-058-059-250300-
   Central Minnesota

CITY           SKY/WX    TMP DP  RH WIND       PRES   REMARKS
ST CLOUD       CLEAR     71  62  73 S3        29.93R
PAYNESVILLE    PTCLDY    67  59  77 SE3       29.93R
AITKIN         MOCLDY    68  61  77 CALM      29.94S
PINE RIVER     CLOUDY    70  63  78 CALM      29.98R
BRAINERD       CLOUDY    71  60  68 CALM      29.95R
STAPLES        CLOUDY    70  59  68 CALM      29.95R
LITTLE FALLS   CLOUDY    70  61  73 CALM      29.94R
LITCHFIELD     CLEAR     70  63  78 CALM      29.92S
BUFFALO        CLEAR     71  59  66 S3        29.94S
MAPLE LAKE     CLEAR     70  63  79 CALM      29.94R
$$
MNZ037-044-045-052-053-250300-
   East Central Minnesota

CITY           SKY/WX    TMP DP  RH WIND       PRES   REMARKS
PRINCETON      CLEAR     73  63  68 CALM      29.93S
MORA           CLOUDY    70  61  73 CALM      29.95R
CAMBRIDGE      PTCLDY    75  61  60 CALM      29.91S
RUSH CITY      MOCLDY    71  60  69 CALM      29.93S
MOOSE LAKE     PTCLDY    66  61  82 NE3       29.95R
CLOQUET        MOCLDY    70  57  64 CALM      29.97S
MCGREGOR       MOCLDY    70  61  73 CALM      29.96R
$$
MNZ071>073-080-081-089-090-097-098-250300-
   Southwest Minnesota

CITY           SKY/WX    TMP DP  RH WIND       PRES   REMARKS
MONTEVIDEO     CLOUDY    68  61  77 SW8       29.88R
GRANITE FALLS  CLOUDY    67  59  76 S8        29.89S
CANBY          CLOUDY    68  59  73 SE9       29.86F
MARSHALL       CLOUDY    68  57  68 S7        29.87S
REDWOOD FALLS  CLOUDY    68  61  78 S10       29.89R
OLIVIA         CLOUDY    70  61  73 S6        29.90R
PIPESTONE      CLEAR     64  61  88 S6        29.87S
WINDOM         CLEAR     66  57  72 S7        29.90R
WORTHINGTON    CLEAR     64  59  82 S9G17     29.91R
JACKSON        CLEAR     64  57  77 S6        29.91R
TRACY          MOCLDY    67  59  75 S7        29.89R
SLAYTON        PTCLDY    64  59  85 CALM      29.91R
$$
MNZ065>067-074>077-082>085-091>093-250300-
   South Central Minnesota

CITY           SKY/WX    TMP DP  RH WIND       PRES   REMARKS
MANKATO        CLEAR     68  55  64 S6        29.93R
NEW ULM        MOCLDY    68  63  83 S6        29.91R
ST JAMES       CLEAR     66  61  82 S6        29.91S
FAIRMONT       CLEAR     64  55  72 S8        29.91S
GLENCOE        CLEAR     70  58  67 SE5       29.92S
FARIBAULT      CLEAR     72  55  56 CALM      29.95R
OWATONNA       CLEAR     68  59  73 CALM      29.95R
WASECA         CLEAR     64  54  68 S3        29.96R
ALBERT LEA     CLEAR     68  57  68 S8G20     29.91R
$$
MNZ078>079-086>088-094>096-250300-
   Southeast Minnesota

CITY           SKY/WX    TMP DP  RH WIND       PRES   REMARKS
ROCHESTER      PTCLDY    68  58  70 SE5       29.96R
RED WING       MOCLDY    73  57  56 CALM      29.93R
STANTON        CLEAR     71  59  66 S3        29.93R
DODGE CENTER   CLEAR     68  61  77 S3        29.96R
WINONA         PTCLDY    73  61  64 CALM      29.96R
AUSTIN         CLEAR     66  59  77 S9        29.93R
PRESTON        MOCLDY    68  63  82 SE5       29.96R
$$
ABBREVIATIONS USED IN REMARKS
   TC - TEMPERATURES IN CELSIUS
  WCI - WIND CHILL INDEX
   HX - HEAT INDEX
  VSB - VISIBILITY
$$



USA.gov is the U.S. government's official web portal to all federal, state and local government web resources and services.